Year,Month,Day,Hour,Minute,Value (Times are PST for temperature in C)
2014,06,14,00,00,11.00
2014,06,14,00,01,11.00
2014,06,14,00,02,10.90
2014,06,14,00,03,10.90
2014,06,14,00,04,10.90
2014,06,14,00,05,10.90
2014,06,14,00,06,10.90
2014,06,14,00,07,10.90
2014,06,14,00,08,10.80
2014,06,14,00,09,10.80
2014,06,14,00,10,10.80
2014,06,14,00,11,10.80
2014,06,14,00,12,10.80
2014,06,14,00,13,10.80
2014,06,14,00,14,10.80
2014,06,14,00,15,10.80
2014,06,14,00,16,10.70
2014,06,14,00,17,10.70
2014,06,14,00,18,10.70
2014,06,14,00,19,10.70
2014,06,14,00,20,10.70
2014,06,14,00,21,10.70
2014,06,14,00,22,10.70
2014,06,14,00,23,10.60
2014,06,14,00,24,10.60
2014,06,14,00,25,10.60
2014,06,14,00,26,10.60
2014,06,14,00,27,10.60
2014,06,14,00,28,10.60
2014,06,14,00,29,10.60
2014,06,14,00,30,10.60
2014,06,14,00,31,10.60
2014,06,14,00,32,10.60
2014,06,14,00,33,10.60
2014,06,14,00,34,10.60
2014,06,14,00,35,10.60
2014,06,14,00,36,10.60
2014,06,14,00,37,10.60
2014,06,14,00,38,10.60
2014,06,14,00,39,10.60
2014,06,14,00,40,10.60
2014,06,14,00,41,10.60
2014,06,14,00,42,10.60
2014,06,14,00,43,10.60
2014,06,14,00,44,10.60
2014,06,14,00,45,10.60
2014,06,14,00,46,10.60
2014,06,14,00,47,10.60
2014,06,14,00,48,10.60
2014,06,14,00,49,10.60
2014,06,14,00,50,10.60
2014,06,14,00,51,10.60
2014,06,14,00,52,10.60
2014,06,14,00,53,10.60
2014,06,14,00,54,10.50
2014,06,14,00,55,10.50
2014,06,14,00,56,10.50
2014,06,14,00,57,10.60
2014,06,14,00,58,10.60
2014,06,14,00,59,10.60
2014,06,14,01,00,10.50
2014,06,14,01,01,10.50
2014,06,14,01,02,10.50
2014,06,14,01,03,10.50
2014,06,14,01,04,10.50
2014,06,14,01,05,10.50
2014,06,14,01,06,10.50
2014,06,14,01,07,10.50
2014,06,14,01,08,10.50
2014,06,14,01,09,10.50
2014,06,14,01,10,10.50
2014,06,14,01,11,10.50
2014,06,14,01,12,10.50
2014,06,14,01,13,10.50
2014,06,14,01,14,10.60
2014,06,14,01,15,10.60
2014,06,14,01,16,10.60
2014,06,14,01,17,10.60
2014,06,14,01,18,10.70
2014,06,14,01,19,10.70
2014,06,14,01,20,10.70
2014,06,14,01,21,10.70
2014,06,14,01,22,10.70
2014,06,14,01,23,10.70
2014,06,14,01,24,10.80
2014,06,14,01,25,10.80
2014,06,14,01,26,10.80
2014,06,14,01,27,10.70
2014,06,14,01,28,10.70
2014,06,14,01,29,10.70
2014,06,14,01,30,10.70
2014,06,14,01,31,10.70
2014,06,14,01,32,10.70
2014,06,14,01,33,10.70
2014,06,14,01,34,10.70
2014,06,14,01,35,10.70
2014,06,14,01,36,10.70
2014,06,14,01,37,10.60
2014,06,14,01,38,10.70
2014,06,14,01,39,10.70
2014,06,14,01,40,10.70
2014,06,14,01,41,10.70
2014,06,14,01,42,10.70
2014,06,14,01,43,10.70
2014,06,14,01,44,10.70
2014,06,14,01,45,10.70
2014,06,14,01,46,10.70
2014,06,14,01,47,10.70
2014,06,14,01,48,10.70
2014,06,14,01,49,10.70
2014,06,14,01,50,10.70
2014,06,14,01,51,10.70
2014,06,14,01,52,10.70
2014,06,14,01,53,10.70
2014,06,14,01,54,10.70
2014,06,14,01,55,10.70
2014,06,14,01,56,10.70
2014,06,14,01,57,10.70
2014,06,14,01,58,10.70
2014,06,14,01,59,10.70
2014,06,14,02,00,10.70
2014,06,14,02,01,10.70
2014,06,14,02,02,10.70
2014,06,14,02,03,10.70
2014,06,14,02,04,10.70
2014,06,14,02,05,10.70
2014,06,14,02,06,10.70
2014,06,14,02,07,10.70
2014,06,14,02,08,10.80
2014,06,14,02,09,10.70
2014,06,14,02,10,10.80
2014,06,14,02,11,10.80
2014,06,14,02,12,10.70
2014,06,14,02,13,10.70
2014,06,14,02,14,10.70
2014,06,14,02,15,10.70
2014,06,14,02,16,10.70
2014,06,14,02,17,10.70
2014,06,14,02,18,10.70
2014,06,14,02,19,10.70
2014,06,14,02,20,10.70
2014,06,14,02,21,10.70
2014,06,14,02,22,10.80
2014,06,14,02,23,10.80
2014,06,14,02,24,10.80
2014,06,14,02,25,10.90
2014,06,14,02,26,10.90
2014,06,14,02,27,10.90
2014,06,14,02,28,10.90
2014,06,14,02,29,10.90
2014,06,14,02,30,10.80
2014,06,14,02,31,10.80
2014,06,14,02,32,10.80
2014,06,14,02,33,10.80
2014,06,14,02,34,10.80
2014,06,14,02,35,10.90
2014,06,14,02,36,10.90
2014,06,14,02,37,10.90
2014,06,14,02,38,10.90
2014,06,14,02,39,10.90
2014,06,14,02,40,11.00
2014,06,14,02,41,11.00
2014,06,14,02,42,11.10
2014,06,14,02,43,11.10
2014,06,14,02,44,11.10
2014,06,14,02,45,11.10
2014,06,14,02,46,11.20
2014,06,14,02,47,11.20
2014,06,14,02,48,11.20
2014,06,14,02,49,11.20
2014,06,14,02,50,11.30
2014,06,14,02,51,11.30
2014,06,14,02,52,11.30
2014,06,14,02,53,11.30
2014,06,14,02,54,11.30
2014,06,14,02,55,11.30
2014,06,14,02,56,11.30
2014,06,14,02,57,11.30
2014,06,14,02,58,11.30
2014,06,14,02,59,11.30
2014,06,14,03,00,11.30
2014,06,14,03,01,11.30
2014,06,14,03,02,11.40
2014,06,14,03,03,11.40
2014,06,14,03,04,11.50
2014,06,14,03,05,11.50
2014,06,14,03,06,11.50
2014,06,14,03,07,11.50
2014,06,14,03,08,11.60
2014,06,14,03,09,11.60
2014,06,14,03,10,11.60
2014,06,14,03,11,11.60
2014,06,14,03,12,11.70
2014,06,14,03,13,11.70
2014,06,14,03,14,11.70
2014,06,14,03,15,11.70
2014,06,14,03,16,11.80
2014,06,14,03,17,11.80
2014,06,14,03,18,11.80
2014,06,14,03,19,11.80
2014,06,14,03,20,11.80
2014,06,14,03,21,11.80
2014,06,14,03,22,11.80
2014,06,14,03,23,11.80
2014,06,14,03,24,11.80
2014,06,14,03,25,11.80
2014,06,14,03,26,11.80
2014,06,14,03,27,11.80
2014,06,14,03,28,11.80
2014,06,14,03,29,11.90
2014,06,14,03,30,11.90
2014,06,14,03,31,11.90
2014,06,14,03,32,11.90
2014,06,14,03,33,11.90
2014,06,14,03,34,11.90
2014,06,14,03,35,11.90
2014,06,14,03,36,11.90
2014,06,14,03,37,11.80
2014,06,14,03,38,11.80
2014,06,14,03,39,11.80
2014,06,14,03,40,11.80
2014,06,14,03,41,11.80
2014,06,14,03,42,11.80
2014,06,14,03,43,11.80
2014,06,14,03,44,11.80
2014,06,14,03,45,11.80
2014,06,14,03,46,11.80
2014,06,14,03,47,11.80
2014,06,14,03,48,11.80
2014,06,14,03,49,11.70
2014,06,14,03,50,11.70
2014,06,14,03,51,11.70
2014,06,14,03,52,11.70
2014,06,14,03,53,11.60
2014,06,14,03,54,11.60
2014,06,14,03,55,11.60
2014,06,14,03,56,11.50
2014,06,14,03,57,11.50
2014,06,14,03,58,11.40
2014,06,14,03,59,11.40
2014,06,14,04,00,11.40
2014,06,14,04,01,11.40
2014,06,14,04,02,11.40
2014,06,14,04,03,11.40
2014,06,14,04,04,11.40
2014,06,14,04,05,11.40
2014,06,14,04,06,11.40
2014,06,14,05,02,10.60
2014,06,14,05,03,10.60
2014,06,14,05,04,10.60
2014,06,14,05,05,10.50
2014,06,14,05,06,10.50
2014,06,14,05,07,10.50
2014,06,14,05,08,10.40
2014,06,14,05,09,10.40
2014,06,14,05,10,10.40
2014,06,14,05,11,10.40
2014,06,14,05,12,10.40
2014,06,14,05,13,10.40
2014,06,14,05,14,10.30
2014,06,14,05,15,10.30
2014,06,14,05,16,10.30
2014,06,14,05,17,10.30
2014,06,14,05,18,10.30
2014,06,14,05,19,10.30
2014,06,14,05,20,10.20
2014,06,14,05,21,10.20
2014,06,14,05,22,10.20
2014,06,14,05,23,10.20
2014,06,14,05,24,10.20
2014,06,14,05,25,10.20
2014,06,14,05,26,10.20
2014,06,14,05,27,10.20
2014,06,14,05,28,10.20
2014,06,14,05,29,10.20
2014,06,14,05,30,10.20
2014,06,14,05,31,10.20
2014,06,14,05,32,10.20
2014,06,14,05,33,10.20
2014,06,14,05,34,10.20
2014,06,14,05,35,10.20
2014,06,14,05,36,10.20
2014,06,14,05,37,10.20
2014,06,14,05,38,10.20
2014,06,14,05,39,10.20
2014,06,14,05,40,10.20
2014,06,14,05,41,10.20
2014,06,14,05,42,10.20
2014,06,14,05,43,10.20
2014,06,14,05,44,10.20
2014,06,14,05,45,10.20
2014,06,14,05,46,10.20
2014,06,14,05,47,10.20
2014,06,14,05,48,10.20
2014,06,14,05,49,10.20
2014,06,14,05,50,10.20
2014,06,14,05,51,10.20
2014,06,14,05,52,10.20
2014,06,14,05,53,10.20
2014,06,14,05,54,10.20
2014,06,14,05,55,10.20
2014,06,14,05,56,10.20
2014,06,14,05,57,10.20
2014,06,14,05,58,10.20
2014,06,14,05,59,10.20
2014,06,14,06,00,10.20
2014,06,14,06,01,10.20
2014,06,14,06,02,10.20
2014,06,14,06,03,10.20
2014,06,14,06,04,10.20
2014,06,14,06,05,10.20
2014,06,14,06,06,10.30
2014,06,14,06,07,10.30
2014,06,14,06,08,10.30
2014,06,14,06,09,10.30
2014,06,14,06,10,10.30
2014,06,14,06,11,10.30
2014,06,14,06,12,10.30
2014,06,14,06,13,10.30
2014,06,14,06,14,10.30
2014,06,14,06,15,10.30
2014,06,14,06,16,10.40
2014,06,14,06,17,10.40
2014,06,14,06,18,10.40
2014,06,14,06,19,10.50
2014,06,14,06,20,10.50
2014,06,14,06,21,10.60
2014,06,14,06,22,10.60
2014,06,14,06,23,10.70
2014,06,14,06,24,10.70
2014,06,14,06,25,10.70
2014,06,14,06,26,10.80
2014,06,14,06,27,10.80
2014,06,14,06,28,10.80
2014,06,14,06,29,10.80
2014,06,14,06,30,10.80
2014,06,14,06,31,10.80
2014,06,14,06,32,10.80
2014,06,14,06,33,10.90
2014,06,14,06,34,10.90
2014,06,14,06,35,10.90
2014,06,14,06,36,10.90
2014,06,14,06,37,10.90
2014,06,14,06,38,10.90
2014,06,14,06,39,10.90
2014,06,14,06,40,10.90
2014,06,14,06,41,10.90
2014,06,14,06,42,10.90
2014,06,14,06,43,10.90
2014,06,14,06,44,11.00
2014,06,14,06,45,11.00
2014,06,14,06,46,11.00
2014,06,14,06,47,11.10
2014,06,14,06,48,11.10
2014,06,14,06,49,11.10
2014,06,14,06,50,11.10
2014,06,14,06,51,11.10
2014,06,14,06,52,11.20
2014,06,14,06,53,11.20
2014,06,14,06,54,11.20
2014,06,14,06,55,11.20
2014,06,14,06,56,11.20
2014,06,14,06,57,11.20
2014,06,14,06,58,11.20
2014,06,14,06,59,11.20
2014,06,14,07,00,11.20
2014,06,14,07,01,11.20
2014,06,14,07,02,11.20
2014,06,14,07,03,11.30
2014,06,14,07,04,11.30
2014,06,14,07,05,11.30
2014,06,14,07,06,11.30
2014,06,14,07,07,11.40
2014,06,14,07,08,11.40
2014,06,14,07,09,11.40
2014,06,14,07,10,11.50
2014,06,14,07,11,11.50
2014,06,14,07,12,11.60
2014,06,14,07,13,11.60
2014,06,14,07,14,11.70
2014,06,14,07,15,11.70
2014,06,14,07,16,11.70
2014,06,14,07,17,11.70
2014,06,14,07,18,11.80
2014,06,14,07,19,11.80
2014,06,14,07,20,11.80
2014,06,14,07,21,11.80
2014,06,14,07,22,11.90
2014,06,14,07,23,11.90
2014,06,14,07,24,11.90
2014,06,14,07,25,11.90
2014,06,14,07,26,12.00
2014,06,14,07,27,12.00
2014,06,14,07,28,12.10
2014,06,14,07,29,12.10
2014,06,14,07,30,12.10
2014,06,14,07,31,12.20
2014,06,14,07,32,12.20
2014,06,14,07,33,12.20
2014,06,14,07,34,12.20
2014,06,14,07,35,12.30
2014,06,14,07,36,12.30
2014,06,14,07,37,12.30
2014,06,14,07,38,12.30
2014,06,14,07,39,12.30
2014,06,14,07,40,12.30
2014,06,14,07,41,12.30
2014,06,14,07,42,12.30
2014,06,14,07,43,12.30
2014,06,14,07,44,12.30
2014,06,14,07,45,12.30
2014,06,14,07,46,12.30
2014,06,14,07,47,12.30
2014,06,14,07,48,12.30
2014,06,14,07,49,12.30
2014,06,14,07,50,12.40
2014,06,14,07,51,12.40
2014,06,14,07,52,12.40
2014,06,14,07,53,12.40
2014,06,14,07,54,12.50
2014,06,14,07,55,12.50
2014,06,14,07,56,12.50
2014,06,14,07,57,12.50
2014,06,14,07,58,12.50
2014,06,14,07,59,12.60
2014,06,14,08,00,12.60
2014,06,14,08,01,12.60
2014,06,14,08,02,12.60
2014,06,14,08,03,12.60
2014,06,14,08,04,12.60
2014,06,14,08,05,12.60
2014,06,14,08,06,12.60
2014,06,14,08,07,12.60
2014,06,14,08,08,12.60
2014,06,14,08,09,12.60
2014,06,14,08,10,12.60
2014,06,14,08,11,12.70
2014,06,14,08,12,12.70
2014,06,14,08,13,12.70
2014,06,14,08,14,12.70
2014,06,14,08,15,12.70
2014,06,14,08,16,12.70
2014,06,14,08,17,12.70
2014,06,14,08,18,12.80
2014,06,14,08,19,12.80
2014,06,14,08,20,12.80
2014,06,14,08,21,12.90
2014,06,14,08,22,12.90
2014,06,14,08,23,12.90
2014,06,14,08,24,12.90
2014,06,14,08,25,13.00
2014,06,14,08,26,13.00
2014,06,14,08,27,13.10
2014,06,14,08,28,13.10
2014,06,14,08,29,13.10
2014,06,14,08,30,13.10
2014,06,14,08,31,13.20
2014,06,14,08,32,13.20
2014,06,14,08,33,13.20
2014,06,14,08,34,13.20
2014,06,14,08,35,13.20
2014,06,14,08,36,13.20
2014,06,14,08,37,13.30
2014,06,14,08,38,13.30
2014,06,14,08,39,13.30
2014,06,14,08,40,13.30
2014,06,14,08,41,13.30
2014,06,14,08,42,13.30
2014,06,14,08,43,13.30
2014,06,14,08,44,13.30
2014,06,14,08,45,13.30
2014,06,14,08,46,13.30
2014,06,14,08,47,13.30
2014,06,14,08,48,13.30
2014,06,14,08,49,13.30
2014,06,14,08,50,13.20
2014,06,14,08,51,13.20
2014,06,14,08,52,13.10
2014,06,14,08,53,13.00
2014,06,14,08,54,13.00
2014,06,14,08,55,13.00
2014,06,14,08,56,13.00
2014,06,14,08,57,12.90
2014,06,14,08,58,13.00
2014,06,14,08,59,13.00
2014,06,14,09,00,13.00
2014,06,14,09,01,13.10
2014,06,14,09,02,13.10
2014,06,14,09,03,13.10
2014,06,14,09,04,13.10
2014,06,14,09,05,13.10
2014,06,14,09,06,13.20
2014,06,14,09,07,13.20
2014,06,14,09,08,13.20
2014,06,14,09,09,13.30
2014,06,14,09,10,13.30
2014,06,14,09,11,13.30
2014,06,14,09,12,13.30
2014,06,14,09,13,13.30
2014,06,14,09,14,13.30
2014,06,14,09,15,13.30
2014,06,14,09,16,13.30
2014,06,14,09,17,13.30
2014,06,14,09,18,13.30
2014,06,14,09,19,13.30
2014,06,14,09,20,13.30
2014,06,14,09,21,13.30
2014,06,14,09,22,13.30
2014,06,14,09,23,13.30
2014,06,14,09,24,13.30
2014,06,14,09,25,13.30
2014,06,14,09,26,13.30
2014,06,14,09,27,13.40
2014,06,14,09,28,13.40
2014,06,14,09,29,13.40
2014,06,14,09,30,13.40
2014,06,14,09,31,13.40
2014,06,14,09,32,13.40
2014,06,14,09,33,13.40
2014,06,14,09,34,13.40
2014,06,14,09,35,13.40
2014,06,14,09,36,13.50
2014,06,14,09,37,13.50
2014,06,14,09,38,13.50
2014,06,14,09,39,13.60
2014,06,14,09,40,13.60
2014,06,14,09,41,13.60
2014,06,14,09,42,13.60
2014,06,14,09,43,13.60
2014,06,14,09,44,13.70
2014,06,14,09,45,13.70
2014,06,14,09,46,13.70
2014,06,14,09,47,13.70
2014,06,14,09,48,13.70
2014,06,14,09,49,13.70
2014,06,14,09,50,13.70
2014,06,14,09,51,13.80
2014,06,14,09,52,13.80
2014,06,14,09,53,13.80
2014,06,14,09,54,13.90
2014,06,14,09,55,13.90
2014,06,14,09,56,13.90
2014,06,14,09,57,13.90
2014,06,14,09,58,13.90
2014,06,14,09,59,13.90
2014,06,14,10,00,14.00
2014,06,14,10,01,14.00
2014,06,14,10,02,14.00
2014,06,14,10,03,14.00
2014,06,14,10,04,14.10
2014,06,14,10,05,14.10
2014,06,14,10,06,14.10
2014,06,14,10,07,14.20
2014,06,14,10,08,14.20
2014,06,14,10,09,14.20
2014,06,14,10,10,14.20
2014,06,14,10,11,14.20
2014,06,14,10,12,14.30
2014,06,14,10,13,14.30
2014,06,14,10,14,14.30
2014,06,14,10,15,14.30
2014,06,14,10,16,14.30
2014,06,14,10,17,14.30
2014,06,14,10,18,14.30
2014,06,14,10,19,14.30
2014,06,14,10,20,14.30
2014,06,14,10,21,14.30
2014,06,14,10,22,14.30
2014,06,14,10,23,14.30
2014,06,14,10,24,14.30
2014,06,14,10,25,14.30
2014,06,14,10,26,14.30
2014,06,14,10,27,14.40
2014,06,14,10,28,14.50
2014,06,14,10,29,14.60
2014,06,14,10,30,14.60
2014,06,14,10,31,14.60
2014,06,14,10,32,14.60
2014,06,14,10,33,14.70
2014,06,14,10,34,14.70
2014,06,14,10,35,14.80
2014,06,14,10,36,14.80
2014,06,14,10,37,14.80
2014,06,14,10,38,14.80
2014,06,14,10,39,14.80
2014,06,14,10,40,14.90
2014,06,14,10,41,14.90
2014,06,14,10,42,14.90
2014,06,14,10,43,14.90
2014,06,14,10,44,14.90
2014,06,14,10,45,15.00
2014,06,14,10,46,15.00
2014,06,14,10,47,15.10
2014,06,14,10,48,15.10
2014,06,14,10,49,15.10
2014,06,14,10,50,15.10
2014,06,14,10,51,15.10
2014,06,14,10,52,15.10
2014,06,14,10,53,15.10
2014,06,14,10,54,15.10
2014,06,14,10,55,15.10
2014,06,14,10,56,15.10
2014,06,14,10,57,15.10
2014,06,14,10,58,15.10
2014,06,14,10,59,15.20
2014,06,14,11,00,15.20
2014,06,14,11,01,15.20
2014,06,14,11,02,15.20
2014,06,14,11,03,15.20
2014,06,14,11,04,15.20
2014,06,14,11,05,15.20
2014,06,14,11,06,15.20
2014,06,14,11,07,15.30
2014,06,14,11,08,15.30
2014,06,14,11,09,15.30
2014,06,14,11,10,15.30
2014,06,14,11,11,15.40
2014,06,14,11,12,15.40
2014,06,14,11,13,15.50
2014,06,14,11,14,15.50
2014,06,14,11,15,15.60
2014,06,14,11,16,15.50
2014,06,14,11,17,15.50
2014,06,14,11,18,15.50
2014,06,14,11,19,15.40
2014,06,14,11,20,15.40
2014,06,14,11,21,15.30
2014,06,14,11,22,15.20
2014,06,14,11,23,15.20
2014,06,14,11,24,15.20
2014,06,14,11,25,15.20
2014,06,14,11,26,15.20
2014,06,14,11,27,15.20
2014,06,14,11,28,15.10
2014,06,14,11,29,15.10
2014,06,14,11,30,15.00
2014,06,14,11,31,15.00
2014,06,14,11,32,15.00
2014,06,14,11,33,15.00
2014,06,14,11,34,15.00
2014,06,14,11,35,15.10
2014,06,14,11,36,15.10
2014,06,14,11,37,15.10
2014,06,14,11,38,15.20
2014,06,14,11,39,15.20
2014,06,14,11,40,15.30
2014,06,14,11,41,15.30
2014,06,14,11,42,15.30
2014,06,14,11,43,15.30
2014,06,14,11,44,15.30
2014,06,14,11,45,15.30
2014,06,14,11,46,15.40
2014,06,14,11,47,15.40
2014,06,14,11,48,15.30
2014,06,14,11,49,15.30
2014,06,14,11,50,15.30
2014,06,14,11,51,15.30
2014,06,14,11,52,15.20
2014,06,14,11,53,15.20
2014,06,14,11,54,15.20
2014,06,14,11,55,15.20
2014,06,14,11,56,15.20
2014,06,14,11,57,15.30
2014,06,14,11,58,15.30
2014,06,14,11,59,15.30
2014,06,14,12,00,15.30
2014,06,14,12,01,15.30
2014,06,14,12,02,15.30
2014,06,14,12,03,15.30
2014,06,14,12,04,15.30
2014,06,14,12,05,15.30
2014,06,14,12,06,15.20
2014,06,14,12,07,15.20
2014,06,14,12,08,15.10
2014,06,14,12,09,15.10
2014,06,14,12,10,15.10
2014,06,14,12,11,15.10
2014,06,14,12,12,15.10
2014,06,14,12,13,15.00
2014,06,14,12,14,15.00
2014,06,14,12,15,15.00
2014,06,14,12,16,15.00
2014,06,14,12,17,14.90
2014,06,14,12,18,14.90
2014,06,14,12,19,14.80
2014,06,14,12,20,14.80
2014,06,14,12,21,14.70
2014,06,14,12,22,14.70
2014,06,14,12,23,14.60
2014,06,14,12,24,14.50
2014,06,14,12,25,14.50
2014,06,14,12,26,14.40
2014,06,14,12,27,14.40
2014,06,14,12,28,14.30
2014,06,14,12,29,14.30
2014,06,14,12,30,14.30
2014,06,14,12,31,14.20
2014,06,14,12,32,14.20
2014,06,14,12,33,14.20
2014,06,14,12,34,14.20
2014,06,14,12,35,14.10
2014,06,14,12,36,14.10
2014,06,14,12,37,14.10
2014,06,14,12,38,14.00
2014,06,14,12,39,14.00
2014,06,14,12,40,14.00
2014,06,14,12,41,13.90
2014,06,14,12,42,13.80
2014,06,14,12,43,13.80
2014,06,14,12,44,13.70
2014,06,14,12,45,13.70
2014,06,14,12,46,13.70
2014,06,14,12,47,13.60
2014,06,14,12,48,13.60
2014,06,14,12,49,13.60
2014,06,14,12,50,13.60
2014,06,14,12,51,13.60
2014,06,14,12,52,13.60
2014,06,14,12,53,13.60
2014,06,14,12,54,13.60
2014,06,14,12,55,13.60
2014,06,14,12,56,13.60
2014,06,14,12,57,13.50
2014,06,14,12,58,13.50
2014,06,14,12,59,13.40
2014,06,14,13,00,13.40
2014,06,14,13,01,13.40
2014,06,14,13,02,13.30
2014,06,14,13,03,13.30
2014,06,14,13,04,13.30
2014,06,14,13,05,13.30
2014,06,14,13,06,13.20
2014,06,14,13,07,13.20
2014,06,14,13,08,13.20
2014,06,14,13,09,13.20
2014,06,14,13,10,13.20
2014,06,14,13,11,13.10
2014,06,14,13,12,13.10
2014,06,14,13,13,13.20
2014,06,14,13,14,13.20
2014,06,14,13,15,13.20
2014,06,14,13,16,13.20
2014,06,14,13,17,13.10
2014,06,14,13,18,13.20
2014,06,14,13,19,13.10
2014,06,14,13,20,13.10
2014,06,14,13,21,13.10
2014,06,14,13,22,13.10
2014,06,14,13,23,13.10
2014,06,14,13,24,13.10
2014,06,14,13,25,13.10
2014,06,14,13,26,13.00
2014,06,14,13,27,12.90
2014,06,14,13,28,12.90
2014,06,14,13,29,12.90
2014,06,14,13,30,12.90
2014,06,14,13,31,12.90
2014,06,14,13,32,12.90
2014,06,14,13,33,12.90
2014,06,14,13,34,12.80
2014,06,14,13,35,12.80
2014,06,14,13,36,12.80
2014,06,14,13,37,12.80
2014,06,14,13,38,12.80
2014,06,14,13,39,12.90
2014,06,14,13,40,12.90
2014,06,14,13,41,12.90
2014,06,14,13,42,13.00
2014,06,14,13,43,13.00
2014,06,14,13,44,13.00
2014,06,14,13,45,13.10
2014,06,14,13,46,13.10
2014,06,14,13,47,13.10
2014,06,14,13,48,13.10
2014,06,14,13,49,13.10
2014,06,14,13,50,13.20
2014,06,14,13,51,13.10
2014,06,14,13,52,13.10
2014,06,14,13,53,13.10
2014,06,14,13,54,13.10
2014,06,14,13,55,13.10
2014,06,14,13,56,13.10
2014,06,14,13,57,13.10
2014,06,14,13,58,13.10
2014,06,14,13,59,13.10
2014,06,14,14,00,13.20
2014,06,14,14,01,13.20
2014,06,14,14,02,13.20
2014,06,14,14,03,13.20
2014,06,14,14,04,13.20
2014,06,14,14,05,13.20
2014,06,14,14,06,13.10
2014,06,14,14,07,13.10
2014,06,14,14,08,13.10
2014,06,14,14,09,13.00
2014,06,14,14,10,13.00
2014,06,14,14,11,13.00
2014,06,14,14,12,12.90
2014,06,14,14,13,12.90
2014,06,14,14,14,12.90
2014,06,14,14,15,12.90
2014,06,14,14,16,12.90
2014,06,14,14,17,12.90
2014,06,14,14,18,12.90
2014,06,14,14,19,12.90
2014,06,14,14,20,12.90
2014,06,14,14,21,12.90
2014,06,14,14,22,12.90
2014,06,14,14,23,12.90
2014,06,14,14,24,12.90
2014,06,14,14,25,12.90
2014,06,14,14,26,12.90
2014,06,14,14,27,12.90
2014,06,14,14,28,12.90
2014,06,14,14,29,13.00
2014,06,14,14,30,13.00
2014,06,14,14,31,13.00
2014,06,14,14,32,13.00
2014,06,14,14,33,13.10
2014,06,14,14,34,13.10
2014,06,14,14,35,13.10
2014,06,14,14,36,13.10
2014,06,14,14,37,13.10
2014,06,14,14,38,13.10
2014,06,14,14,39,13.10
2014,06,14,14,40,13.10
2014,06,14,14,41,13.10
2014,06,14,14,42,13.10
2014,06,14,14,43,13.10
2014,06,14,14,44,13.10
2014,06,14,14,45,13.10
2014,06,14,14,46,13.20
2014,06,14,14,47,13.20
2014,06,14,14,48,13.20
2014,06,14,14,49,13.20
2014,06,14,14,50,13.30
2014,06,14,14,51,13.30
2014,06,14,14,52,13.30
2014,06,14,14,53,13.30
2014,06,14,14,54,13.30
2014,06,14,14,55,13.30
2014,06,14,14,56,13.30
2014,06,14,14,57,13.30
2014,06,14,14,58,13.30
2014,06,14,14,59,13.40
2014,06,14,15,00,13.40
2014,06,14,15,01,13.40
2014,06,14,15,02,13.40
2014,06,14,15,03,13.40
2014,06,14,15,04,13.50
2014,06,14,15,05,13.50
2014,06,14,15,06,13.50
2014,06,14,15,07,13.50
2014,06,14,15,08,13.50
2014,06,14,15,09,13.50
2014,06,14,15,10,13.50
2014,06,14,15,11,13.50
2014,06,14,15,12,13.40
2014,06,14,15,13,13.40
2014,06,14,15,14,13.40
2014,06,14,15,15,13.40
2014,06,14,15,16,13.40
2014,06,14,15,17,13.40
2014,06,14,15,18,13.40
2014,06,14,15,19,13.40
2014,06,14,15,20,13.40
2014,06,14,15,21,13.40
2014,06,14,15,22,13.40
2014,06,14,15,23,13.40
2014,06,14,15,24,13.40
2014,06,14,15,25,13.40
2014,06,14,15,26,13.50
2014,06,14,15,27,13.50
2014,06,14,15,28,13.50
2014,06,14,15,29,13.50
2014,06,14,15,30,13.40
2014,06,14,15,31,13.40
2014,06,14,15,32,13.40
2014,06,14,15,33,13.40
2014,06,14,15,34,13.40
2014,06,14,15,35,13.30
2014,06,14,15,36,13.30
2014,06,14,15,37,13.30
2014,06,14,15,38,13.30
2014,06,14,15,39,13.30
2014,06,14,15,40,13.40
2014,06,14,15,41,13.40
2014,06,14,15,42,13.40
2014,06,14,15,43,13.40
2014,06,14,15,44,13.50
2014,06,14,15,45,13.50
2014,06,14,15,46,13.60
2014,06,14,15,47,13.60
2014,06,14,15,48,13.70
2014,06,14,15,49,13.70
2014,06,14,15,50,13.70
2014,06,14,15,51,13.70
2014,06,14,15,52,13.80
2014,06,14,15,53,13.80
2014,06,14,15,54,13.80
2014,06,14,15,55,13.80
2014,06,14,15,56,13.80
2014,06,14,15,57,13.80
2014,06,14,15,58,13.90
2014,06,14,15,59,13.90
2014,06,14,16,00,13.90
2014,06,14,16,01,13.90
2014,06,14,16,02,13.90
2014,06,14,16,03,13.90
2014,06,14,16,04,13.90
2014,06,14,16,05,13.90
2014,06,14,16,06,14.00
2014,06,14,16,07,14.00
2014,06,14,16,08,14.00
2014,06,14,16,09,14.00
2014,06,14,16,10,14.00
2014,06,14,16,11,14.00
2014,06,14,16,12,14.10
2014,06,14,16,13,14.00
2014,06,14,16,14,14.00
2014,06,14,16,15,14.00
2014,06,14,16,16,14.00
2014,06,14,16,17,13.90
2014,06,14,16,18,13.90
2014,06,14,16,19,13.90
2014,06,14,16,20,13.80
2014,06,14,16,21,13.80
2014,06,14,16,22,13.80
2014,06,14,16,23,13.80
2014,06,14,16,24,13.70
2014,06,14,16,25,13.70
2014,06,14,16,26,13.70
2014,06,14,16,27,13.70
2014,06,14,16,28,13.70
2014,06,14,16,29,13.80
2014,06,14,16,30,13.80
2014,06,14,16,31,13.80
2014,06,14,16,32,13.80
2014,06,14,16,33,13.80
2014,06,14,16,34,13.80
2014,06,14,16,35,13.90
2014,06,14,16,36,13.90
2014,06,14,16,37,13.90
2014,06,14,16,38,14.00
2014,06,14,16,39,14.00
2014,06,14,16,40,14.10
2014,06,14,16,41,14.10
2014,06,14,16,42,14.10
2014,06,14,16,43,14.10
2014,06,14,16,44,14.20
2014,06,14,16,45,14.20
2014,06,14,16,46,14.20
2014,06,14,16,47,14.20
2014,06,14,16,48,14.20
2014,06,14,16,49,14.30
2014,06,14,16,50,14.30
2014,06,14,16,51,14.30
2014,06,14,16,52,14.30
2014,06,14,16,53,14.30
2014,06,14,16,54,14.40
2014,06,14,16,55,14.40
2014,06,14,16,56,14.40
2014,06,14,16,57,14.40
2014,06,14,16,58,14.40
2014,06,14,16,59,14.40
2014,06,14,17,00,14.40
2014,06,14,17,01,14.30
2014,06,14,17,02,14.30
2014,06,14,17,03,14.30
2014,06,14,17,04,14.30
2014,06,14,17,05,14.30
2014,06,14,17,06,14.30
2014,06,14,17,07,14.30
2014,06,14,17,08,14.40
2014,06,14,17,09,14.40
2014,06,14,17,10,14.50
2014,06,14,17,11,14.60
2014,06,14,17,12,14.60
2014,06,14,17,13,14.70
2014,06,14,17,14,14.80
2014,06,14,17,15,15.00
2014,06,14,17,16,15.10
2014,06,14,17,17,15.20
2014,06,14,17,18,15.20
2014,06,14,17,19,15.30
2014,06,14,17,20,15.30
2014,06,14,17,21,15.30
2014,06,14,17,22,15.40
2014,06,14,17,23,15.40
2014,06,14,17,24,15.40
2014,06,14,17,25,15.40
2014,06,14,17,26,15.50
2014,06,14,17,27,15.50
2014,06,14,17,28,15.50
2014,06,14,17,29,15.50
2014,06,14,17,30,15.60
2014,06,14,17,31,15.50
2014,06,14,17,32,15.60
2014,06,14,17,33,15.60
2014,06,14,17,34,15.60
2014,06,14,17,35,15.60
2014,06,14,17,36,15.60
2014,06,14,17,37,15.50
2014,06,14,17,38,15.50
2014,06,14,17,39,15.50
2014,06,14,17,40,15.40
2014,06,14,17,41,15.40
2014,06,14,17,42,15.30
2014,06,14,17,43,15.20
2014,06,14,17,44,15.10
2014,06,14,17,45,15.10
2014,06,14,17,46,15.00
2014,06,14,17,47,15.00
2014,06,14,17,48,14.90
2014,06,14,17,49,14.90
2014,06,14,17,50,14.90
2014,06,14,17,51,15.00
2014,06,14,17,52,15.00
2014,06,14,17,53,15.00
2014,06,14,17,54,15.10
2014,06,14,17,55,15.10
2014,06,14,17,56,15.20
2014,06,14,17,57,15.20
2014,06,14,17,58,15.30
2014,06,14,17,59,15.40
2014,06,14,18,00,15.40
2014,06,14,18,01,15.40
2014,06,14,18,02,15.50
2014,06,14,18,03,15.50
2014,06,14,18,04,15.60
2014,06,14,18,05,15.60
2014,06,14,18,06,15.70
2014,06,14,18,07,15.70
2014,06,14,18,08,15.80
2014,06,14,18,09,15.80
2014,06,14,18,10,15.90
2014,06,14,18,11,16.00
2014,06,14,18,12,16.10
2014,06,14,18,13,16.20
2014,06,14,18,14,16.20